When you browse on this site, cookies collect data to enhance your experience and personalize the content and advertising you see.
Visit our Privacy Policy to learn more. By continuing to use the site, you agree to this use of cookies and data.
  • In Austria
  • List of Countries
  • For 7 days
  • Water Temperature
  • Weather Map
  • News
  • Weather Widgets
  • user-avatar
    Login

    Hourly Weather Lowech

    Today, 18 October, Friday

    Time Temperature Precipitation Wind Pressure Humidity
    00:00 +16°C° 0 mm 1 mps 738 mmHg 59%
    01:00 +16°C° 0 mm 1 mps 738 mmHg 60%
    02:00 +15°C° 0 mm 1 mps 739 mmHg 60%
    03:00 +15°C° 0 mm 1 mps 738 mmHg 61%
    04:00 +15°C° 0 mm 1 mps 738 mmHg 62%
    05:00 +15°C° 0 mm 1 mps 738 mmHg 63%
    06:00 +15°C° 0 mm 0 mps 738 mmHg 61%
    07:00 +15°C° 0 mm 0 mps 738 mmHg 59%
    08:00 +16°C° 0 mm 0 mps 739 mmHg 57%
    09:00 +20°C° 0 mm 1 mps 739 mmHg 51%
    10:00 +22°C° 0 mm 1 mps 739 mmHg 45%
    11:00 +25°C° 0 mm 1 mps 739 mmHg 38%
    12:00 +25°C° 0 mm 2 mps 739 mmHg 36%
    13:00 +26°C° 0 mm 2 mps 738 mmHg 34%
    14:00 +27°C° 0 mm 2 mps 738 mmHg 32%
    15:00 +26°C° 0 mm 2 mps 737 mmHg 35%
    16:00 +25°C° 0 mm 2 mps 737 mmHg 38%
    17:00 +23°C° 0 mm 2 mps 737 mmHg 41%
    18:00 +21°C° 0 mm 2 mps 737 mmHg 44%
    19:00 +21°C° 0 mm 1 mps 737 mmHg 47%
    20:00 +19°C° 0 mm 1 mps 737 mmHg 50%
    21:00 +19°C° 0 mm 1 mps 737 mmHg 51%
    22:00 +19°C° 0 mm 1 mps 737 mmHg 52%
    23:00 +18°C° 0 mm 1 mps 738 mmHg 54%

    Tomorrow, 19 October, Saturday

    Time Temperature Precipitation Wind Pressure Humidity
    00:00 +18°C° 0 mm 1 mps 738 mmHg 55%
    01:00 +18°C° 0 mm 1 mps 738 mmHg 56%
    02:00 +16°C° 0 mm 1 mps 737 mmHg 56%
    03:00 +16°C° 0 mm 1 mps 737 mmHg 57%
    04:00 +16°C° 0 mm 1 mps 738 mmHg 58%
    05:00 +15°C° 0 mm 0 mps 738 mmHg 58%
    06:00 +16°C° 0 mm 0 mps 738 mmHg 57%
    07:00 +16°C° 0 mm 0 mps 738 mmHg 55%
    08:00 +17°C° 0 mm 0 mps 738 mmHg 54%
    09:00 +19°C° 0 mm 0 mps 738 mmHg 49%
    10:00 +23°C° 0 mm 1 mps 738 mmHg 43%
    11:00 +25°C° 0 mm 1 mps 739 mmHg 38%
    12:00 +26°C° 0 mm 1 mps 738 mmHg 37%
    13:00 +27°C° 0 mm 2 mps 738 mmHg 35%
    14:00 +27°C° 0 mm 2 mps 738 mmHg 34%
    15:00 +26°C° 0 mm 2 mps 738 mmHg 37%
    16:00 +25°C° 0 mm 2 mps 737 mmHg 40%
    17:00 +24°C° 0 mm 1 mps 737 mmHg 43%
    18:00 +23°C° 0 mm 1 mps 737 mmHg 46%
    19:00 +22°C° 0 mm 1 mps 738 mmHg 49%
    20:00 +20°C° 0 mm 1 mps 738 mmHg 53%
    21:00 +20°C° 0 mm 1 mps 738 mmHg 54%
    22:00 +19°C° 0 mm 1 mps 738 mmHg 56%
    23:00 +19°C° 0 mm 1 mps 739 mmHg 58%

    Day after tomorrow, 20 October, Sunday

    Time Temperature Precipitation Wind Pressure Humidity
    00:00 +19°C° 0 mm 1 mps 739 mmHg 59%
    01:00 +18°C° 0 mm 1 mps 739 mmHg 60%
    02:00 +18°C° 0 mm 1 mps 739 mmHg 61%
    03:00 +18°C° 0 mm 1 mps 739 mmHg 62%
    04:00 +18°C° 0 mm 1 mps 739 mmHg 62%
    05:00 +16°C° 0 mm 1 mps 739 mmHg 63%
    06:00 +18°C° 0 mm 1 mps 739 mmHg 61%
    07:00 +17°C° 0 mm 0 mps 739 mmHg 59%
    08:00 +18°C° 0 mm 0 mps 740 mmHg 58%
    09:00 +22°C° 0 mm 1 mps 740 mmHg 52%
    10:00 +24°C° 0 mm 1 mps 740 mmHg 46%
    11:00 +26°C° 0 mm 1 mps 740 mmHg 40%
    12:00 +26°C° 0 mm 1 mps 740 mmHg 38%
    13:00 +27°C° 0 mm 2 mps 740 mmHg 37%
    14:00 +28°C° 0 mm 2 mps 739 mmHg 35%
    15:00 +27°C° 0 mm 2 mps 739 mmHg 38%
    16:00 +26°C° 0 mm 2 mps 739 mmHg 41%
    17:00 +25°C° 0 mm 1 mps 739 mmHg 44%
    18:00 +23°C° 0 mm 1 mps 739 mmHg 48%
    19:00 +22°C° 0 mm 1 mps 739 mmHg 51%
    20:00 +21°C° 0 mm 1 mps 740 mmHg 54%
    21:00 +20°C° 0 mm 1 mps 740 mmHg 56%
    22:00 +20°C° 0 mm 1 mps 740 mmHg 57%
    23:00 +19°C° 0 mm 1 mps 740 mmHg 59%

    21 October, Monday

    Time Temperature Precipitation Wind Pressure Humidity
    00:00 +19°C° 0 mm 1 mps 740 mmHg 60%
    01:00 +19°C° 0 mm 1 mps 740 mmHg 61%
    02:00 +18°C° 0 mm 1 mps 740 mmHg 62%
    03:00 +18°C° 0 mm 1 mps 740 mmHg 63%
    04:00 +18°C° 0 mm 1 mps 740 mmHg 63%
    05:00 +16°C° 0 mm 0 mps 740 mmHg 64%
    06:00 +16°C° 0 mm 0 mps 740 mmHg 62%
    07:00 +17°C° 0 mm 0 mps 740 mmHg 61%
    08:00 +18°C° 0 mm 0 mps 741 mmHg 59%
    09:00 +20°C° 0 mm 0 mps 741 mmHg 53%
    10:00 +24°C° 0 mm 1 mps 741 mmHg 47%
    11:00 +26°C° 0 mm 1 mps 741 mmHg 41%
    12:00 +27°C° 0 mm 1 mps 741 mmHg 38%
    13:00 +27°C° 0 mm 1 mps 741 mmHg 35%
    14:00 +28°C° 0 mm 1 mps 740 mmHg 33%
    15:00 +27°C° 0 mm 1 mps 740 mmHg 36%
    16:00 +26°C° 0 mm 1 mps 740 mmHg 38%
    17:00 +25°C° 0 mm 1 mps 740 mmHg 41%
    18:00 +23°C° 0 mm 1 mps 740 mmHg 45%
    19:00 +22°C° 0 mm 1 mps 740 mmHg 48%
    20:00 +20°C° 0 mm 1 mps 740 mmHg 51%
    21:00 +20°C° 0 mm 1 mps 740 mmHg 53%
    22:00 +19°C° 0 mm 1 mps 740 mmHg 55%
    23:00 +19°C° 0 mm 1 mps 740 mmHg 56%

    22 October, Tuesday

    Time Temperature Precipitation Wind Pressure Humidity
    00:00 +19°C° 0 mm 1 mps 740 mmHg 57%
    01:00 +18°C° 0 mm 1 mps 740 mmHg 58%
    02:00 +18°C° 0 mm 1 mps 740 mmHg 59%
    03:00 +18°C° 0 mm 1 mps 740 mmHg 60%
    04:00 +16°C° 0 mm 1 mps 740 mmHg 61%
    05:00 +16°C° 0 mm 1 mps 740 mmHg 62%
    06:00 +18°C° 0 mm 1 mps 740 mmHg 61%
    07:00 +18°C° 0 mm 1 mps 741 mmHg 59%
    08:00 +19°C° 0 mm 1 mps 741 mmHg 58%
    09:00 +21°C° 0 mm 1 mps 741 mmHg 51%
    10:00 +23°C° 0 mm 1 mps 741 mmHg 45%
    11:00 +26°C° 0 mm 1 mps 741 mmHg 39%
    12:00 +26°C° 0 mm 1 mps 741 mmHg 36%
    13:00 +27°C° 0 mm 1 mps 740 mmHg 34%
    14:00 +28°C° 0 mm 1 mps 740 mmHg 32%
    15:00 +26°C° 0 mm 1 mps 740 mmHg 36%
    16:00 +25°C° 0 mm 1 mps 740 mmHg 39%
    17:00 +24°C° 0 mm 1 mps 739 mmHg 42%
    18:00 +23°C° 0 mm 1 mps 740 mmHg 45%
    19:00 +22°C° 0 mm 1 mps 740 mmHg 48%
    20:00 +20°C° 0 mm 1 mps 740 mmHg 50%
    21:00 +20°C° 0 mm 1 mps 740 mmHg 52%
    22:00 +19°C° 0 mm 1 mps 740 mmHg 53%
    23:00 +19°C° 0 mm 1 mps 741 mmHg 54%

    23 October, Wednesday

    Time Temperature Precipitation Wind Pressure Humidity
    00:00 +19°C° 0 mm 1 mps 741 mmHg 55%
    01:00 +18°C° 0 mm 1 mps 741 mmHg 57%
    02:00 +16°C° 0 mm 0 mps 741 mmHg 58%
    03:00 +15°C° 0 mm 0 mps 741 mmHg 60%
    04:00 +16°C° 0 mm 1 mps 741 mmHg 62%
    05:00 +16°C° 0 mm 1 mps 741 mmHg 64%
    06:00 +16°C° 0 mm 1 mps 741 mmHg 63%
    07:00 +18°C° 0 mm 1 mps 742 mmHg 63%
    08:00 +18°C° 0 mm 1 mps 742 mmHg 62%
    09:00 +20°C° 0 mm 1 mps 742 mmHg 56%
    10:00 +21°C° 0 mm 2 mps 742 mmHg 50%
    11:00 +24°C° 0 mm 2 mps 742 mmHg 44%
    12:00 +24°C° 0 mm 2 mps 742 mmHg 42%
    13:00 +25°C° 0 mm 2 mps 741 mmHg 40%
    14:00 +26°C° 0 mm 3 mps 741 mmHg 38%
    15:00 +25°C° 0 mm 2 mps 741 mmHg 42%
    16:00 +24°C° 0 mm 2 mps 740 mmHg 46%
    17:00 +23°C° 0 mm 2 mps 740 mmHg 50%
    18:00 +20°C° 0 mm 2 mps 740 mmHg 55%
    19:00 +19°C° 0 mm 2 mps 741 mmHg 60%
    20:00 +17°C° 0 mm 2 mps 741 mmHg 65%
    21:00 +17°C° 0 mm 2 mps 741 mmHg 67%
    22:00 +16°C° 0 mm 1 mps 741 mmHg 68%
    23:00 +16°C° 0 mm 1 mps 741 mmHg 70%
    Show more